[[{"header":{"parameterUnit":"m.s-1","parameterCategory":1,"la1":30.2991,"la2":30.254,"lo1":-89.0895,"lo2":-89.0444,"dy":0.0017,"dx":0.0017,"nx":28,"ny":28,"refTime":"2025-01-15T03:00:00:Z","depth":0,"parameterNumber":2,"parameterNumberName":"U-component_of_WINDS"},"data":[0,0,0,0,0,0,0,0,0,0,0,0,0,0,0,0,0,0,0,0,0,0,0,0,0,0,0,0,0,0,0,0,0,0,0,0,0,0,0,0,0,0,0,0,0,0,0,0,0,0,0,0,0,0,0,0,0,0,-0.9828,-0.983,0,-1.0042,-1.0045,-1.0047,-1.0055,-1.0053,-1.005,-1.0047,-1.0283,-1.0291,-1.03,0,0,0,0,0,0,0,0,0,0,0,0,0,-0.9436,-0.9443,-0.9827,-0.983,-0.9833,-1.0042,-1.0045,-1.0048,-1.0056,-1.0052,-1.0049,-1.0046,-1.028,-1.029,-1.0301,0,0,0,0,0,0,0,0,0,0,0,0,0,-0.9624,-0.9445,-0.9827,-0.9861,-0.9866,-1.0041,-1.0045,-1.0049,-1.0056,-1.0052,-1.0048,-1.0045,-1.0277,-1.0289,-1.0302,-1.0462,0,0,-1.0342,-1.0348,0,0,0,0,0,0,0,0,-0.9614,-0.9639,-0.9854,-0.9859,-0.9865,-1.0018,-0.9993,-1.0188,-1.0057,-0.9985,-1.0047,-1.0043,-1.0199,-1.0218,-1.0268,-1.0473,-1.0483,-1.0343,-1.0351,-1.0357,-1.0361,0,0,0,0,0,0,0,-0.9601,-0.963,-0.9913,-0.9857,-0.9864,-0.987,-0.9893,-1.003,-1.0112,-0.9991,-0.9992,-1.0016,-1.0201,-1.0255,-1.0273,-1.0487,-1.0343,-1.0355,-1.0363,-1.0368,-1.0834,-1.0838,0,0,0,0,0,0,-0.9579,-0.9619,-0.9906,-0.9919,-0.9727,-0.988,-0.9905,-0.9973,-1.011,-1.0127,-1.0019,-1.0016,-1.0235,-1.0258,-1.0282,-1.0478,-1.0357,-1.0369,-1.0377,-1.0829,-1.0835,-1.084,0,0,0,0,0,0,-0.957,-0.9604,-0.9897,-0.9769,-0.9807,-0.9891,-0.9967,-0.9979,-1.0033,-1.0132,-1.0148,-1.0058,-1.0232,-1.0263,-1.0416,-1.0487,-1.0375,-1.0387,-1.0824,-1.0831,-1.0837,-1.0873,0,0,0,0,0,0,-0.9559,-0.9601,-0.966,-0.977,-0.9814,-1.0025,-0.9971,-0.9986,-1.0054,-1.0051,-1.0173,-1.0189,-1.0232,-1.0396,-1.0429,-1.0503,-1.0397,-1.0818,-1.0827,-1.0835,-1.0866,-1.088,-1.0892,0,0,0,0,0,-0.9545,-0.9665,-0.9663,-0.9698,-0.9888,-1.0029,-1.0054,-1.0097,-1.0059,-1.0121,-1.0184,-1.0185,-1.0472,-1.0412,-1.0449,-1.0528,-1.0814,-1.0825,-1.0835,-1.086,-1.0877,-1.0892,0,0,0,0,0,0,-0.9568,-0.968,-0.968,-0.9838,-0.9923,-1.003,-1.011,-1.0113,-1.0215,-1.0209,-1.0262,-1.0289,-1.0441,-1.0499,-1.043,-1.0689,-1.064,-1.0658,-1.0646,-1.0663,-1.0676,-1.0661,-1.0408,0,0,0,0,0,-0.959,-0.969,-0.9785,-0.9916,-0.9957,-1.0026,-1.0089,-1.0113,-1.0206,-1.0243,-1.0318,-1.0412,-1.0523,-1.0596,-1.0704,-1.0872,-1.0901,-1.0944,-1.0957,-1.0968,-1.0985,-1.1079,-1.11,-1.0873,-1.0873,-1.0873,0,0,-0.964,-0.9714,-0.9775,-0.9922,-0.9991,-1.0097,-1.0057,-1.0172,-1.0252,-1.0263,-1.0411,-1.0468,-1.0576,-1.0737,-1.0812,-1.0791,-1.1052,-1.0981,-1.0988,-1.1,-1.1092,-1.1113,-1.1132,-1.088,-1.0879,-1.0878,0,0,-0.9786,-0.9849,-0.9965,-1.0033,-1.0135,-1.0179,-1.0206,-1.0312,-1.0349,-1.0496,-1.0505,-1.0604,-1.0794,-1.0871,-1.0935,-1.1103,-1.1109,-1.1137,-1.1208,-1.1299,-1.1317,-1.1333,-1.1396,-1.1418,-1.1152,-1.1152,-1.1152,0,-0.9837,-0.9992,-1.0026,-1.0139,-1.0205,-1.0211,-1.0331,-1.0397,-1.0532,-1.0579,-1.055,-1.0787,-1.0861,-1.104,-1.108,-1.1131,-1.1167,-1.1126,-1.131,-1.1327,-1.1343,-1.1404,-1.1427,-1.1155,-1.1155,-1.1154,-1.1154,0,-1.0051,-1.0159,-1.0241,-1.0363,-1.0438,-1.0554,-1.0609,-1.0681,-1.0697,-1.0744,-1.0895,-1.0982,-1.1107,-1.1151,-1.1171,-1.1334,-1.1317,-1.1298,-1.1251,-1.1367,-1.1425,-1.1448,-1.1159,-1.1158,-1.1157,-1.1156,0,0,-1.0224,-1.0357,-1.0388,-1.0443,-1.0554,-1.0641,-1.0757,-1.0873,-1.0935,-1.1027,-1.1129,-1.1286,-1.1269,-1.1342,-1.1369,-1.1449,-1.1579,-1.1422,-1.1425,-1.1451,-1.1767,-1.1782,-1.1808,-1.1581,-1.1585,-1.1589,-1.1758,0,-1.0383,-1.0586,-1.0617,-1.0798,-1.0899,-1.0904,-1.1006,-1.1087,-1.1134,-1.123,-1.1283,-1.1395,-1.1362,-1.1406,-1.1484,-1.1546,-1.1644,-1.1534,-1.1682,-1.1686,-1.1658,-1.1838,-1.1856,-1.2012,-1.1781,-1.1785,-1.1788,0,-1.0599,-1.0688,-1.0877,-1.0971,-1.1015,-1.1106,-1.1215,-1.1304,-1.1397,-1.1425,-1.1502,-1.152,-1.1645,-1.1586,-1.1761,-1.1685,-1.1747,-1.1786,-1.1793,-1.1813,-1.1747,-1.1867,-1.2063,-1.2088,-1.1823,-1.182,-1.1818,0,-1.0708,-1.0877,-1.1011,-1.1058,-1.1171,-1.1235,-1.1286,-1.1373,-1.1441,-1.1537,-1.1582,-1.1692,-1.1755,-1.1842,-1.189,-1.1842,-1.2062,-1.2007,-1.2093,-1.2092,-1.2144,-1.2141,-1.2357,-1.2176,-1.2176,-1.2175,-1.2175,0,-1.0886,-1.1003,-1.1062,-1.1146,-1.1276,-1.1311,-1.1441,-1.1491,-1.1568,-1.1664,-1.1676,-1.1767,-1.1822,-1.1922,-1.196,-1.21,-1.2128,-1.2157,-1.2167,-1.2159,-1.2156,-1.2204,-1.2196,-1.2181,-1.218,-1.2179,-1.2178,0,-1.1035,-1.1078,-1.1225,-1.1317,-1.1343,-1.1435,-1.1516,-1.1599,-1.1642,-1.1764,-1.1795,-1.1865,-1.1982,-1.2036,-1.2184,-1.2209,-1.237,-1.237,-1.2338,-1.2342,-1.2426,-1.2419,-1.2685,-1.2723,-1.2512,-1.2514,-1.2515,0,-1.1147,-1.1236,-1.1334,-1.1396,-1.1447,-1.1548,-1.1614,-1.1652,-1.1722,-1.1831,-1.1902,-1.2018,-1.2114,-1.2302,-1.237,-1.2482,-1.2488,-1.2573,-1.2506,-1.2494,-1.2494,-1.249,-1.25,-1.2587,-1.2589,-1.2591,-1.2592,0,-1.1344,-1.136,-1.1453,-1.1553,-1.163,-1.1713,-1.1794,-1.1845,-1.1896,-1.1974,-1.2091,-1.2165,-1.2311,-1.2428,-1.2544,-1.2601,-1.2608,-1.2611,-1.2638,-1.2634,-1.2612,-1.2628,-1.2375,-1.2607,-1.2606,-1.2605,-1.2604,-1.2603,-1.1481,-1.1559,-1.164,-1.1743,-1.1805,-1.188,-1.1961,-1.2012,-1.2108,-1.2227,-1.2243,-1.2369,-1.2459,-1.2614,-1.2674,-1.2776,-1.2757,-1.2795,-1.2805,-1.2815,-1.2821,-1.259,-1.2797,-1.2797,-1.2796,-1.2796,-1.2796,0,-1.1681,-1.1731,-1.1825,-1.1934,-1.2015,-1.2004,-1.2093,-1.2164,-1.2272,-1.2352,-1.2443,-1.2578,-1.269,-1.2763,-1.2878,-1.2945,-1.2951,-1.2975,-1.2973,-1.2986,-1.2831,-1.2798,-1.2968,-1.2968,-1.2968,-1.2968,-1.2968,-1.2968,-1.1795,-1.1927,-1.1952,-1.2116,-1.2167,-1.2285,-1.2337,-1.2406,-1.247,-1.2618,-1.2708,-1.2752,-1.2831,-1.295,-1.3054,-1.3073,-1.3116,-1.3141,-1.316,-1.3015,-1.2997,-1.298,-1.295,-1.3149,-1.315,-1.3308,-1.331,-1.3311]},{"header":{"parameterUnit":"m.s-1","parameterCategory":1,"la1":30.2991,"la2":30.254,"lo1":-89.0895,"lo2":-89.0444,"dy":0.0017,"dx":0.0017,"nx":28,"ny":28,"refTime":"2025-01-15T03:00:00:Z","depth":0,"parameterNumber":3,"parameterNumberName":"V-component_of_WINDS"},"data":[0,0,0,0,0,0,0,0,0,0,0,0,0,0,0,0,0,0,0,0,0,0,0,0,0,0,0,0,0,0,0,0,0,0,0,0,0,0,0,0,0,0,0,0,0,0,0,0,0,0,0,0,0,0,0,0,0,0,-2.7228,-2.7227,0,-2.7183,-2.7182,-2.7182,-2.7092,-2.709,-2.7088,-2.7086,-2.7044,-2.7044,-2.7045,0,0,0,0,0,0,0,0,0,0,0,0,0,-2.7236,-2.7237,-2.7228,-2.7227,-2.7226,-2.7183,-2.7182,-2.7182,-2.7092,-2.709,-2.7088,-2.7085,-2.7044,-2.7044,-2.7045,0,0,0,0,0,0,0,0,0,0,0,0,0,-2.7216,-2.7237,-2.7228,-2.7176,-2.7171,-2.7183,-2.7182,-2.7181,-2.7092,-2.709,-2.7087,-2.7084,-2.7044,-2.7044,-2.7045,-2.7104,0,0,-2.7048,-2.7048,0,0,0,0,0,0,0,0,-2.7218,-2.7216,-2.7184,-2.718,-2.7174,-2.714,-2.717,-2.7156,-2.7093,-2.7123,-2.7086,-2.7083,-2.7078,-2.7076,-2.7074,-2.7102,-2.71,-2.7048,-2.7048,-2.7049,-2.7049,0,0,0,0,0,0,0,-2.7219,-2.7218,-2.721,-2.7184,-2.7178,-2.7156,-2.715,-2.7167,-2.7116,-2.712,-2.7113,-2.7109,-2.7075,-2.7073,-2.7072,-2.71,-2.7048,-2.7048,-2.7049,-2.7049,-2.7172,-2.7175,0,0,0,0,0,0,-2.7228,-2.7219,-2.7211,-2.7209,-2.719,-2.7158,-2.7151,-2.7154,-2.7116,-2.7107,-2.7111,-2.7105,-2.7073,-2.7071,-2.707,-2.7136,-2.7049,-2.7049,-2.705,-2.7169,-2.7173,-2.7176,0,0,0,0,0,0,-2.7228,-2.7228,-2.7213,-2.7212,-2.7208,-2.7161,-2.7164,-2.7154,-2.7152,-2.7109,-2.71,-2.7118,-2.7071,-2.7069,-2.7096,-2.7133,-2.705,-2.705,-2.7166,-2.717,-2.7174,-2.7268,0,0,0,0,0,0,-2.7229,-2.7229,-2.7251,-2.7213,-2.7209,-2.724,-2.7166,-2.7155,-2.7154,-2.7145,-2.7114,-2.7106,-2.7069,-2.7095,-2.7097,-2.7133,-2.7051,-2.7163,-2.7168,-2.7173,-2.7262,-2.7275,-2.7287,0,0,0,0,0,-2.723,-2.728,-2.7252,-2.7252,-2.7235,-2.7242,-2.7239,-2.7195,-2.7157,-2.7179,-2.715,-2.7107,-2.7128,-2.7098,-2.7099,-2.7136,-2.716,-2.7166,-2.7172,-2.7256,-2.7272,-2.7286,0,0,0,0,0,0,-2.7326,-2.7275,-2.7243,-2.7283,-2.7267,-2.7227,-2.7253,-2.7214,-2.7209,-2.7202,-2.7147,-2.714,-2.7174,-2.7158,-2.7125,-2.719,-2.7137,-2.7144,-2.72,-2.7215,-2.7228,-2.7232,-2.7052,0,0,0,0,0,-2.7351,-2.736,-2.7315,-2.7354,-2.7348,-2.7302,-2.7303,-2.7269,-2.7251,-2.7245,-2.7218,-2.7203,-2.7206,-2.721,-2.721,-2.7258,-2.7249,-2.7284,-2.7296,-2.7307,-2.7314,-2.7336,-2.735,-2.7196,-2.7196,-2.7196,0,0,-2.7405,-2.7377,-2.7387,-2.7373,-2.7357,-2.7367,-2.7297,-2.7312,-2.7319,-2.7247,-2.727,-2.725,-2.723,-2.7267,-2.7282,-2.7254,-2.7354,-2.7314,-2.7323,-2.7324,-2.7344,-2.7358,-2.7372,-2.72,-2.72,-2.7199,0,0,-2.7507,-2.7488,-2.7518,-2.7502,-2.7477,-2.7446,-2.7453,-2.7418,-2.7401,-2.7423,-2.7368,-2.7376,-2.7383,-2.737,-2.7364,-2.7458,-2.7418,-2.746,-2.7526,-2.7548,-2.756,-2.7571,-2.7604,-2.7617,-2.7467,-2.7467,-2.7467,0,-2.7577,-2.759,-2.7539,-2.7556,-2.7551,-2.7484,-2.7513,-2.7501,-2.7479,-2.7477,-2.7446,-2.7451,-2.7432,-2.7464,-2.7487,-2.7485,-2.7491,-2.7464,-2.7563,-2.7573,-2.7582,-2.7613,-2.7625,-2.7472,-2.7471,-2.7471,-2.747,0,-2.7677,-2.7687,-2.7714,-2.7692,-2.7689,-2.7713,-2.7665,-2.7669,-2.7635,-2.7606,-2.7628,-2.7603,-2.7596,-2.7601,-2.7569,-2.7628,-2.7612,-2.7572,-2.7518,-2.7603,-2.7631,-2.7642,-2.748,-2.7478,-2.7476,-2.7475,0,0,-2.7842,-2.7788,-2.7799,-2.7787,-2.7753,-2.776,-2.778,-2.7772,-2.7776,-2.7762,-2.7777,-2.7782,-2.7745,-2.7738,-2.7703,-2.7723,-2.7798,-2.7681,-2.7679,-2.7704,-2.7861,-2.7891,-2.7906,-2.777,-2.7772,-2.7774,-2.7863,0,-2.7938,-2.7968,-2.792,-2.7961,-2.7969,-2.7904,-2.7921,-2.7902,-2.7875,-2.7878,-2.7848,-2.7853,-2.7803,-2.7799,-2.7815,-2.7786,-2.7829,-2.7778,-2.7784,-2.7785,-2.7792,-2.7921,-2.7953,-2.8039,-2.7873,-2.7875,-2.7876,0,-2.8054,-2.8043,-2.8085,-2.8046,-2.8048,-2.8064,-2.8051,-2.8054,-2.8031,-2.801,-2.8001,-2.7959,-2.7975,-2.7921,-2.7942,-2.7909,-2.7908,-2.7894,-2.7896,-2.7896,-2.7837,-2.7925,-2.8065,-2.8078,-2.7893,-2.7892,-2.7891,0,-2.817,-2.8166,-2.8189,-2.8181,-2.8137,-2.815,-2.8132,-2.8106,-2.8103,-2.8092,-2.8089,-2.8081,-2.8077,-2.8071,-2.8027,-2.7992,-2.8054,-2.7996,-2.8037,-2.8038,-2.8054,-2.8054,-2.8198,-2.8053,-2.8053,-2.8052,-2.8052,0,-2.8282,-2.831,-2.8241,-2.8256,-2.8284,-2.8229,-2.8259,-2.8235,-2.8211,-2.822,-2.8163,-2.8173,-2.8114,-2.8117,-2.8082,-2.8105,-2.8103,-2.8087,-2.8078,-2.8093,-2.8095,-2.8092,-2.8086,-2.8056,-2.8055,-2.8054,-2.8054,0,-2.8418,-2.8372,-2.8393,-2.8348,-2.8338,-2.8361,-2.8322,-2.8334,-2.8302,-2.8314,-2.8314,-2.8264,-2.8265,-2.8219,-2.8211,-2.8188,-2.8225,-2.8205,-2.8233,-2.8227,-2.827,-2.8267,-2.8417,-2.8434,-2.8279,-2.828,-2.8282,0,-2.8493,-2.8513,-2.8469,-2.8469,-2.8454,-2.8457,-2.8452,-2.8398,-2.8396,-2.8369,-2.8384,-2.8379,-2.8373,-2.8376,-2.834,-2.8333,-2.8312,-2.8365,-2.8311,-2.8325,-2.8313,-2.8313,-2.8314,-2.8377,-2.8379,-2.8381,-2.8382,0,-2.8631,-2.8607,-2.8603,-2.859,-2.8586,-2.8574,-2.8559,-2.8563,-2.8503,-2.8504,-2.8502,-2.8497,-2.8486,-2.8482,-2.8468,-2.8449,-2.8406,-2.8399,-2.8408,-2.8424,-2.844,-2.8432,-2.8265,-2.8397,-2.8395,-2.8394,-2.8393,-2.8393,-2.8739,-2.8752,-2.8723,-2.872,-2.8701,-2.8687,-2.8695,-2.8663,-2.8661,-2.8647,-2.8615,-2.8618,-2.8592,-2.8568,-2.8553,-2.8555,-2.8529,-2.8542,-2.8545,-2.855,-2.8558,-2.8438,-2.8552,-2.8552,-2.8551,-2.8551,-2.8551,0,-2.8874,-2.8851,-2.8848,-2.8827,-2.8824,-2.8781,-2.876,-2.8761,-2.8764,-2.8743,-2.8737,-2.8734,-2.8729,-2.8691,-2.8681,-2.869,-2.867,-2.869,-2.8689,-2.8685,-2.8582,-2.8575,-2.8706,-2.8706,-2.8706,-2.8706,-2.8706,-2.8706,-2.8944,-2.8965,-2.8936,-2.8946,-2.8923,-2.8925,-2.8917,-2.8903,-2.8885,-2.8885,-2.888,-2.8854,-2.8825,-2.8813,-2.8806,-2.8795,-2.8794,-2.8821,-2.8803,-2.8708,-2.8693,-2.8679,-2.8672,-2.8821,-2.8821,-2.8906,-2.8907,-2.8908]}]]